SCP
0 0 0 0 0 0 0 0 0 0 0 0 0 0 0 0 0 0 0 0 0 0 0 0 0 0 0 0 0 0 0 0 0 0 0 0 0 0 0 0 0 0 0
0 0 0 0 0 0 0 0 0 0 0 0 0 0 0 0 0 0 0 0 0 0 0 0 0 0 0 0 0 0 0 0 0 0 0 0 0 0 0 0 0 0 0
0 0 0 0 0 0 0 0 0 0 0 0 0 0 0 0 0 0 0 0 0 0 0 0 0 0 0 0 0 0 0 0 0 0 0 0 0 0 0 0 0 0 0
0 0 0 0 0 0 0 0 0 0 0 0 0 0 0 0 0 0 0 0 0 0 0 0 0 0 0 0 0 0 0 0 0 0 0 0 0 0 0 0 0 0 0
0 0 0 0 0 0 0 0 0 0 0 0 0 0 0 0 0 0 0 0 0 0 0 0 0 0 0 0 0 0 0 0 0 0 0 0 0 0 0 0 0 0 0
0 0 0 0 0 0 0 0 0 0 0 0 0 0 0 0 0 0 0 0 0 0 0 0 0 0 0 0 0 0 0 0 0 0 0 0 0 0 0 0 0 0 0
0 0 0 0 0 0 0 0 0 0 0 0 0 0 0 0 0 0 0 0 0 0 0 0 0 0 0 0 0 0 0 0 0 0 0 0 0 0 0 0 0 0 0
0 0 0 0 0 0 0 0 0 0 0 0 0 0 0 0 0 0 0 0 0 0 0 0 0 0 0 0 0 0 0 0 0 0 0 0 0 0 0 0 0 0 0
0 0 0 0 0 0 0 0 0 0 0 0 0 0 0 0 0 0 0 0 0 0 0 0 0 0 0 0 0 0 0 0 0 0 0 0 0 0 0 0 0 0 0
0 0 0 0 0 0 0 0 0 0 0 0 0 0 0 0 0 0 0 0 0 0 0 0 0 0 0 0 -0 0 0 0 0 0 0 0 0 0 0 0 0 0 0
0 0 0 0 0 0 0 0 0 0 0 0 0 0 0 0 0 0 0 0 0 0 0 0 0 0 0 0 -0 0 0 0 0 0 0 0 0 0 0 0 0 0 0
0 0 0 0 0 0 0 0 0 0 0 0 0 0 0 0 0 0 0 0 0 0 0 0 0 0 0 0 0 0 0 0 0 0 0 0 0 0 0 0 0 0 0
0 0 0 0 0 0 0 0 0 0 0 0 0 0 0 0 0 0 0 0 0 0 0 0 0 0 0 0 0 0 0 0 0 0 0 0 0 0 0 0 0 0 0
0 0 0 0 0 0 0 0 0 0 0 0 0 0 0 0 0 0 0 -0 0 0 0 0 0 0 0 0 0 0 0 0 0 0 0 0 0 0 0 0 0 0 0
0 0 0 0 0 0 0 0 0 0 0 0 0 0 0 0 0 0 -0 -0 0 0 0 0 0 0 0 0 0 0 0 0 0 0 0 0 0 0 0 0 0 0 0
0 0 0 0 0 0 0 0 0 0 0 0 0 0 0 0 0 0 0 0 0 0 0 0 0 0 0 0 0 0 0 0 0 0 0 0 0 0 0 0 0 0 0
0 0 0 0 0 0 0 0 0 0 0 0 0 0 0 0 0 0 0 0 0 0 0 0 0 0 0 0 0 0 0 0 0 0 0 0 0 0 0 0 0 0 0
0 0 0 0 0 0 0 0 0 0 0 0 0 0 0 -0 0 0 0 0 0 0 0 0 0 0 0 0 0 0 0 0 0 0 0 0 0 0 0 0 0 0 0
0 0 0 0 0 0 0 0 0 0 0 0 0 0 0 0 0 0 0 0 0 0 0 0 0 0 0 0 0 0 0 0 0 0 0 0 0 0 0 0 0 0 0
0 0 0 0 0 0 0 0 0 0 0 0 0 0 0 0 0 0 0 0 0 0 0 0 0 0 0 0 0 0 0 0 0 0 0 0 0 0 0 0 0 0 0
0 0 0 0 0 0 0 0 0 0 0 0 0 0 0 0 0 0 0 0 0 0 0 0 0 0 0 0 0 0 0 0 0 0 0 0 0 0 0 0 0 0 0
0 0 0 0 0 0 -0 -0 -0 0 0 0 0 0 0 0 0 0 0 0 0 0 0 0 0 0 0 0 0 0 0 0 0 0 0 0 0 0 0 0 0 0 0
0 0 0 0 0 0 0 0 0 0 0 0 0 0 -0 -0 -0 0 0 0 0 0 0 0 0 0 0 0 0 0 0 0 0 0 0 0 0 0 0 0 0 0 0
0 0 0 0 0 0 0 0 0 0 0 0 0 -0 -0 -0 -0 0 0 0 0 0 0 0 0 0 0 0 0 0 0 0 0 0 0 0 0 0 0 0 0 0 0
0 0 0 0 0 0 0 0 0 0 0 0 0 -0 -0 -0 0 0 0 0 0 0 0 0 0 0 0 0 0 0 0 0 0 0 0 0 0 0 0 0 0 0 0
0 0 0 0 0 0 0 0 0 0 0 0 0 0 0 0 0 0 0 0 0 0 0 0 0 0 0 0 0 0 0 0 0 0 0 0 0 0 0 0 0 0 0
Wind_Speed
13 12 12 11 11 11 10 9 8 7 6 6 5 4 4 4 4 3 3 2 3 3 4 5 5 5 4 4 5 5 5 6 8 7 6 6 8 8 8 7 8 8 8
12 12 11 11 11 10 10 9 7 6 5 5 4 4 3 4 4 4 5 5 5 5 5 5 5 5 5 5 4 6 5 6 7 9 7 7 8 9 8 8 9 10 7
12 12 11 11 10 10 9 7 6 5 5 4 3 4 4 4 5 6 7 6 5 5 5 5 5 5 5 4 5 5 5 6 6 8 9 7 7 8 8 9 9 7 10
12 12 11 10 9 8 7 6 6 5 4 4 4 5 5 8 10 10 9 8 7 6 5 5 5 5 5 5 5 5 6 6 7 7 8 8 7 8 6 6 7 6 8
11 11 10 8 7 7 6 6 5 4 5 5 5 5 6 8 9 9 9 9 9 8 6 5 6 8 8 5 6 5 6 7 8 8 9 9 9 7 7 6 8 7 8
9 9 8 7 6 6 5 5 5 5 5 5 5 6 7 7 8 9 8 8 9 9 7 6 7 7 6 6 8 10 10 10 10 9 9 10 11 9 8 7 7 8 6
7 7 6 6 5 4 5 6 5 5 5 4 5 5 5 6 5 5 8 8 9 7 6 6 7 8 6 5 8 12 12 14 13 10 10 11 10 9 9 9 8 9 9
6 5 5 4 5 5 5 5 4 3 3 2 2 3 2 4 2 3 9 9 8 6 6 6 6 5 4 6 9 11 10 10 11 9 8 9 9 8 8 8 9 9 9
5 5 4 5 5 4 4 3 3 2 1 1 1 1 1 3 3 2 7 8 6 7 7 7 6 5 4 7 9 11 11 10 11 12 12 12 14 15 11 6 6 7 7
4 4 4 4 4 4 3 3 2 1 2 2 1 1 1 1 5 2 5 7 7 7 7 7 4 3 7 9 9 10 12 11 11 13 12 11 9 8 8 5 5 6 6
4 4 4 3 2 3 2 1 2 2 2 2 2 2 1 2 5 4 3 5 7 8 8 7 5 6 11 13 11 9 11 12 11 10 9 7 6 5 4 3 3 4 5
3 3 2 1 1 3 0 1 2 3 3 3 2 2 1 2 3 2 4 6 7 8 8 7 8 13 16 16 12 12 15 12 7 7 6 5 4 4 4 4 4 4 4
3 3 2 1 1 0 1 2 1 2 2 3 3 3 3 3 2 2 5 8 9 7 7 11 14 16 15 11 10 12 10 6 5 5 5 5 4 4 4 4 4 4 4
2 1 2 2 2 1 2 2 2 4 5 6 6 5 5 4 6 7 7 8 9 8 8 12 14 13 10 9 8 7 4 4 5 5 5 4 3 3 3 3 3 4 3
0 1 1 1 2 2 0 3 4 6 5 5 6 6 6 6 6 6 6 7 7 8 10 8 7 6 6 6 6 6 5 5 5 4 4 3 3 3 3 3 3 3 3
1 1 2 1 1 2 1 4 8 7 8 7 5 4 4 4 7 9 9 11 12 12 8 6 6 6 7 7 7 7 6 5 4 3 3 3 3 3 3 3 3 3 3
2 3 4 4 3 2 2 1 4 5 3 2 1 2 4 7 8 9 11 13 13 10 5 5 6 6 6 7 7 6 6 6 4 3 2 2 2 3 2 3 3 3 3
3 2 3 4 3 3 2 3 3 3 3 2 3 3 5 7 7 9 11 10 6 5 4 5 6 6 6 6 6 6 6 5 4 3 2 2 2 2 2 2 2 3 3
3 2 2 3 3 2 3 4 4 4 3 3 2 1 3 6 6 6 8 4 5 5 6 6 6 7 7 6 6 6 5 5 5 4 3 2 2 2 2 2 1 2 2
1 2 3 3 3 3 3 4 4 4 4 3 3 4 4 3 3 4 4 5 5 5 6 6 7 7 7 6 6 6 5 5 6 6 5 4 3 3 2 2 2 1 1
2 4 2 2 4 4 4 4 4 4 4 3 3 2 2 3 3 4 4 5 5 5 6 6 7 7 6 6 7 7 7 6 6 7 7 6 5 4 3 3 3 2 2
4 2 3 4 5 4 4 3 4 4 4 4 3 2 1 2 3 4 4 5 5 5 5 6 6 6 6 7 7 6 7 8 8 8 8 7 6 5 5 4 4 4 3
2 3 4 4 4 2 0 3 4 4 4 4 4 4 4 4 4 5 5 5 5 5 5 5 5 7 7 7 7 7 8 8 8 9 9 8 6 6 5 5 5 5 5
4 4 4 4 3 3 4 4 4 5 5 5 5 5 5 4 4 5 5 5 5 5 5 5 6 10 12 9 8 8 8 8 9 8 10 8 7 6 5 5 6 7 6
5 5 4 4 3 4 4 5 5 5 5 5 5 5 5 5 5 5 5 5 6 6 7 7 6 9 13 14 13 12 11 12 10 9 8 6 7 8 7 6 5 6 7
6 5 4 4 4 4 5 5 5 5 5 6 5 5 5 5 5 5 5 6 6 6 7 7 10 12 15 12 14 14 13 13 14 13 8 6 7 8 8 6 8 6 7
Wind_Direction
86 89 91 92 93 93 93 93 92 93 92 92 95 93 90 78 56 34 18 25 9 5 350 357 357 344 334 338 327 315 316 324 315 313 315 320 324 313 303 293 291 283 280
90 91 90 90 90 91 91 91 90 89 88 88 85 78 71 71 50 25 10 18 8 5 360 351 342 336 343 327 325 325 320 314 306 308 310 306 302 298 290 291 297 296 297
94 92 89 88 87 87 88 88 87 84 78 74 71 67 52 52 50 31 19 8 2 350 342 332 329 323 313 321 324 313 309 312 313 303 300 297 294 292 295 297 298 297 296
90 89 86 86 87 88 86 81 77 74 72 61 54 52 48 49 44 29 12 351 344 338 330 323 316 313 312 325 314 306 315 318 307 300 299 298 295 293 298 301 301 297 297
90 90 88 86 85 84 81 76 67 52 55 51 49 51 56 64 43 29 360 345 338 326 320 318 317 314 306 291 292 309 309 302 302 299 299 300 299 303 304 301 299 301 291
87 91 92 93 91 90 88 77 66 56 48 42 39 46 49 64 62 35 360 336 321 313 317 325 316 310 335 305 290 293 287 288 293 294 294 294 296 299 300 301 301 302 297
92 96 98 95 87 78 80 75 64 56 51 45 43 53 76 93 70 17 346 321 305 302 314 317 316 323 340 344 325 310 299 293 284 282 286 289 295 298 301 303 301 300 296
109 107 102 98 87 79 72 65 60 50 38 38 54 60 92 123 127 343 333 317 307 315 321 312 312 318 19 352 323 310 302 301 297 294 283 288 295 297 296 294 293 291 287
100 98 92 85 83 79 73 66 64 50 17 338 71 55 75 154 189 310 336 320 327 336 326 319 319 324 19 337 319 310 308 307 307 310 303 294 290 288 284 284 287 290 297
104 99 87 74 75 73 64 44 40 353 323 325 10 352 321 135 167 225 325 328 335 331 319 314 326 334 327 319 316 310 305 308 316 315 312 307 300 294 288 268 277 292 301
107 101 91 91 101 95 70 12 325 314 321 316 310 317 343 77 159 200 286 325 334 325 320 320 321 327 320 313 308 293 287 300 306 301 302 303 307 310 311 304 285 284 297
113 111 112 100 68 99 76 294 301 312 308 308 321 340 23 93 108 190 269 298 305 311 312 317 322 321 314 308 303 290 295 301 294 297 307 312 319 321 321 321 310 292 274
122 123 124 95 38 28 282 287 291 312 334 346 357 6 20 42 68 358 314 308 308 308 315 320 315 308 307 302 298 301 303 298 303 313 318 320 318 313 316 318 318 312 306
118 152 184 192 228 243 279 312 6 20 16 3 7 7 10 31 26 4 346 338 340 335 336 320 310 303 300 296 302 309 307 307 314 314 318 318 321 328 332 335 335 335 334
160 248 272 260 265 264 219 41 42 66 60 30 16 3 4 5 6 340 329 330 329 320 320 309 314 325 331 336 334 331 328 326 324 323 327 332 340 343 344 341 339 337 344
319 304 294 288 280 304 124 112 67 103 109 90 63 19 24 19 335 330 327 322 315 312 315 316 324 330 335 334 331 329 328 324 320 327 339 343 343 342 347 343 347 345 347
339 338 325 332 335 346 354 113 136 120 119 127 96 357 342 330 328 328 328 325 313 311 312 317 326 329 328 326 324 325 325 324 325 340 359 355 345 342 345 342 346 346 349
320 348 313 318 329 349 4 23 71 124 153 167 192 251 304 318 324 327 328 327 327 333 332 332 330 326 324 323 323 325 329 336 344 355 6 357 342 341 342 341 349 350 344
321 7 340 327 336 9 23 43 54 56 71 91 102 152 296 310 316 326 328 333 333 336 337 334 328 323 321 322 326 332 339 349 352 350 357 352 336 333 338 330 330 321 319
91 55 338 335 14 32 41 51 55 56 56 59 54 30 360 347 349 346 343 340 337 335 336 333 325 320 323 333 341 342 347 359 357 352 350 347 342 336 337 333 327 329 325
103 141 216 335 45 38 33 40 53 52 51 55 65 55 355 342 341 342 342 339 338 334 331 326 321 326 339 346 346 347 357 2 360 352 346 342 343 344 341 341 339 348 349
357 65 71 58 61 44 14 32 51 53 50 53 64 87 344 336 2 356 348 341 336 329 323 321 327 340 351 352 350 357 5 2 352 345 340 339 344 350 351 351 351 354 2
2 59 85 84 92 123 342 50 56 56 54 53 51 39 35 24 18 6 353 341 333 330 330 333 343 358 3 359 358 12 9 352 334 327 332 337 349 359 356 354 1 5 13
51 46 58 69 63 64 65 61 57 57 59 57 51 43 35 29 18 5 351 341 342 342 346 354 5 8 12 13 5 9 6 344 328 323 326 333 354 3 1 1 9 19 19
62 59 62 60 57 64 68 65 62 61 61 59 54 44 37 30 21 11 356 348 349 356 3 10 17 15 9 14 12 2 348 341 344 340 329 340 9 4 359 8 18 25 28
62 61 69 70 64 66 70 72 67 65 65 63 56 50 45 33 21 9 360 357 359 3 7 12 23 27 14 6 2 356 351 349 348 344 342 356 12 13 3 10 22 28 34